Weather History for Caslav, Czech Republic

Change the Weather History Date:

Monday, April 29, 2013

  Actual Average Record
Temperature  
Mean Temperature 54 °F -  
Max Temperature 59 °F - - ()
Min Temperature 48 °F - - ()
Degree Days  
Heating Degree Days 12    
Growing Degree Days 4 (Base 50)    
Moisture  
Dew Point 50 °F    
Average Humidity 89    
Maximum Humidity 100    
Minimum Humidity 82    
Precipitation  
Precipitation 0.00 in - - ()
Sea Level Pressure  
Sea Level Pressure 30.03 in    
Wind  
Wind Speed 2 mph ()    
Max Wind Speed 6 mph    
Max Gust Speed -    
Visibility 5.8 miles    
Events Rain    
T = Trace of Precipitation, MM = Missing Value Source: Averaged Metar Reports

Daily Weather History Graph

Daily Weather History Graph

Search for Another Location

Airport:

Trip Planner

Search our weather history database for the weather conditions in past years. The results will help you decide how hot, cold, wet, or windy it might be!

Date:

Astronomy

Apr. 29, 2013 Rise Set
Actual Time 5:38 AM CEST 8:14 PM CEST
Civil Twilight 5:02 AM CEST 8:50 PM CEST
Nautical Twilight 4:16 AM CEST 9:36 PM CEST
Astronomical Twilight 3:22 AM CEST 10:31 PM CEST
Moon No Moon Rise 8:29 AM CEST (4/29)
Length of Visible Light 15h 48m
Length of Day
14h 35m
Waning Gibbous, 82% of the Moon is Illuminated
Apr 29
Waning Gibbous
May 2
Last Quarter
May 10
New
May 18
First Quarter
May 25
Full

Hourly Weather History & Observations

Time (CEST) Temp. Dew Point Humidity Pressure Visibility Wind Dir Wind Speed Gust Speed Precip Events Conditions
12:00 AM 48.2 °F 46.4 °F 93% 30.04 in 6.2 mi Calm Calm - N/A   Overcast
1:00 AM 48.2 °F 46.4 °F 93% 30.01 in 6.2 mi Variable 2.3 mph - N/A   Overcast
2:00 AM 48.2 °F 46.4 °F 93% 30.01 in 6.2 mi Variable 2.3 mph - N/A   Overcast
3:00 AM 50.0 °F 48.2 °F 94% 30.01 in 6.2 mi SE 1.2 mph - N/A   Overcast
4:00 AM 50.0 °F 48.2 °F 94% 29.98 in 6.2 mi East 3.5 mph - N/A   Overcast
5:00 AM 48.2 °F 48.2 °F 100% 29.98 in 6.2 mi East 4.6 mph - N/A   Overcast
6:00 AM 50.0 °F 48.2 °F 94% 29.98 in 6.2 mi East 2.3 mph - N/A   Overcast
7:00 AM 50.0 °F 48.2 °F 94% 29.98 in 5.0 mi Calm Calm - N/A   Overcast
8:00 AM 50.0 °F 48.2 °F 94% 29.98 in 5.0 mi West 3.5 mph - N/A   Overcast
9:00 AM 51.8 °F 50.0 °F 94% 30.01 in 5.0 mi SW 4.6 mph - N/A   Overcast
10:00 AM 53.6 °F 50.0 °F 88% 29.98 in 5.0 mi Variable 2.3 mph - N/A   Overcast
10:17 AM 53.6 °F 50.0 °F 88% 30.01 in 5.0 mi Variable 2.3 mph - N/A   Overcast
10:53 AM 53.6 °F 50.0 °F 88% 30.01 in 5.0 mi Variable 2.3 mph - N/A   Overcast
11:00 AM 53.6 °F 50.0 °F 88% 30.01 in 5.0 mi Variable 1.2 mph - N/A   Overcast
12:00 PM 55.4 °F 50.0 °F 82% 30.04 in 5.0 mi Calm Calm - N/A   Overcast
1:00 PM 55.4 °F 51.8 °F 88% 30.04 in 6.2 mi Variable 2.3 mph - N/A   Overcast
2:00 PM 57.2 °F 51.8 °F 82% 30.04 in 6.2 mi Variable 1.2 mph - N/A   Overcast
3:00 PM 57.2 °F 51.8 °F 82% 30.04 in 6.2 mi Calm Calm - N/A   Overcast
4:00 PM 57.2 °F 51.8 °F 82% 30.06 in 6.2 mi Variable 1.2 mph - N/A   Overcast
5:00 PM 59.0 °F 53.6 °F 82% 30.06 in 6.2 mi NW 4.6 mph - N/A   Overcast
6:00 PM 57.2 °F 53.6 °F 88% 30.06 in 6.2 mi Variable 2.3 mph - N/A   Overcast
7:00 PM 59.0 °F 53.6 °F 82% 30.06 in 6.2 mi NW 3.5 mph - N/A Rain Light Rain
8:00 PM 55.4 °F 51.8 °F 88% 30.09 in 6.2 mi NNW 5.8 mph - N/A Rain Light Rain
9:00 PM 55.4 °F 51.8 °F 88% 30.09 in 6.2 mi NW 4.6 mph - N/A   Mostly Cloudy
10:00 PM 53.6 °F 50.0 °F 88% 30.12 in - Variable 2.3 mph - N/A   Clear
11:00 PM 51.8 °F 48.2 °F 88% 30.12 in - NW 2.3 mph - N/A   Clear